sim
Sign-in with your pilot id or email,
or register
Callsign
Passwort

Schedule Details

Flight Number: RYR1246 (1)
Departure: Athens Eleftherios Venizelos (LGAV) at 15:35
Arrival: Bratislava M. R. Stefanik Airport (LZIB) at 17:50
Route: Ryanair Passenger Schedule. Enter filed route here before submitting Pirep.

Weather Information
Getting current METAR information for LGAV 280320Z VRB03KT 9999 FEW030 14/07 Q1019 NOSIG
Getting current METAR information for LZIB 280300Z 26004KT CAVOK 12/06 Q1025

Schedule Frequency

Route Map